Time,TemperatureF,DewpointF,PressureIn,WindDirection,WindDirectionDegrees,WindSpeedMPH,WindSpeedGustMPH,Humidity,HourlyPrecipIn,Conditions,Clouds,dailyrainin,SoftwareType,DateUTC
2013-02-08 00:00:00,26.4,20.8,30.40,North,360,0.0,3.0,79,0.00,,,0.00,VWS V14.01,2013-02-08 05:00:00,
2013-02-08 00:02:00,26.5,20.9,30.41,North,360,0.0,3.0,79,0.00,,,0.00,VWS V14.01,2013-02-08 05:02:00,
2013-02-08 00:06:00,27.0,22.0,30.40,ESE,107,0.0,3.0,81,0.00,,,0.00,VWS V14.01,2013-02-08 05:06:00,
2013-02-08 00:11:00,27.6,22.5,30.40,ENE,71,2.0,4.0,81,0.00,,,0.00,VWS V14.01,2013-02-08 05:11:00,
2013-02-08 00:16:00,28.2,22.8,30.40,East,97,2.0,7.0,80,0.00,,,0.00,VWS V14.01,2013-02-08 05:16:00,
2013-02-08 00:21:00,28.6,23.2,30.40,ESE,102,3.0,7.0,80,0.00,,,0.00,VWS V14.01,2013-02-08 05:21:00,
2013-02-08 00:26:00,28.8,23.1,30.40,East,80,2.0,7.0,79,0.00,,,0.00,VWS V14.01,2013-02-08 05:26:00,
2013-02-08 00:30:00,29.6,23.6,30.37,East,88,5.0,8.0,78,0.00,,,0.00,VWS V14.01,2013-02-08 05:30:00,
2013-02-08 00:31:00,29.0,23.3,30.40,East,101,5.0,7.0,79,0.00,,,0.00,VWS V14.01,2013-02-08 05:31:00,
2013-02-08 00:36:00,29.1,23.4,30.39,ENE,66,3.0,7.0,79,0.00,,,0.00,VWS V14.01,2013-02-08 05:36:00,
2013-02-08 00:41:00,29.2,23.5,30.39,ENE,76,3.0,8.0,79,0.00,,,0.00,VWS V14.01,2013-02-08 05:41:00,
2013-02-08 00:46:00,29.2,23.2,30.39,East,84,2.0,9.0,78,0.00,,,0.00,VWS V14.01,2013-02-08 05:46:00,
2013-02-08 00:51:00,29.3,23.3,30.39,ENE,78,3.0,9.0,78,0.00,,,0.00,VWS V14.01,2013-02-08 05:51:00,
2013-02-08 00:56:00,29.3,23.3,30.39,ENE,61,0.0,9.0,78,0.00,,,0.00,VWS V14.01,2013-02-08 05:56:00,
2013-02-08 01:00:00,29.9,24.2,30.35,ENE,75,4.0,13.0,79,0.00,,,0.00,VWS V14.01,2013-02-08 06:00:00,
2013-02-08 01:01:00,29.3,23.3,30.38,ENE,71,2.0,9.0,78,0.00,,,0.00,VWS V14.01,2013-02-08 06:01:00,
2013-02-08 01:06:00,29.4,23.4,30.38,ENE,76,2.0,6.0,78,0.00,,,0.00,VWS V14.01,2013-02-08 06:06:00,
2013-02-08 01:11:00,29.4,23.4,30.38,NE,40,2.0,6.0,78,0.00,,,0.00,VWS V14.01,2013-02-08 06:11:00,
2013-02-08 01:16:00,29.5,23.5,30.37,ENE,66,0.0,7.0,78,0.00,,,0.00,VWS V14.01,2013-02-08 06:16:00,
2013-02-08 01:21:00,29.6,23.6,30.37,East,88,3.0,8.0,78,0.00,,,0.00,VWS V14.01,2013-02-08 06:21:00,
2013-02-08 01:26:00,29.6,23.6,30.37,ENE,75,3.0,8.0,78,0.00,,,0.00,VWS V14.01,2013-02-08 06:26:00,
2013-02-08 01:31:00,29.6,23.6,30.37,East,91,2.0,8.0,78,0.00,,,0.00,VWS V14.01,2013-02-08 06:31:00,
2013-02-08 01:36:00,29.7,24.0,30.37,East,82,1.0,8.0,79,0.00,,,0.00,VWS V14.01,2013-02-08 06:36:00,
2013-02-08 01:41:00,29.8,24.1,30.37,ENE,78,2.0,10.0,79,0.00,,,0.00,VWS V14.01,2013-02-08 06:41:00,
2013-02-08 01:46:00,29.8,24.1,30.36,ESE,117,2.0,11.0,79,0.00,,,0.00,VWS V14.01,2013-02-08 06:46:00,
2013-02-08 01:51:00,29.8,24.1,30.36,ESE,115,4.0,11.0,79,0.00,,,0.00,VWS V14.01,2013-02-08 06:51:00,
2013-02-08 01:56:00,29.9,24.2,30.35,ESE,105,2.0,11.0,79,0.00,,,0.00,VWS V14.01,2013-02-08 06:56:00,
2013-02-08 02:00:00,30.2,24.5,30.33,ENE,71,3.0,13.0,79,0.00,,,0.00,VWS V14.01,2013-02-08 07:00:00,
2013-02-08 02:01:00,29.9,24.2,30.35,ENE,66,5.0,13.0,79,0.00,,,0.00,VWS V14.01,2013-02-08 07:01:00,
2013-02-08 02:06:00,30.0,24.3,30.35,East,98,3.0,10.0,79,0.00,,,0.00,VWS V14.01,2013-02-08 07:06:00,
2013-02-08 02:11:00,30.0,24.3,30.35,East,94,6.0,10.0,79,0.00,,,0.00,VWS V14.01,2013-02-08 07:11:00,
2013-02-08 02:16:00,30.0,24.3,30.35,SE,136,3.0,10.0,79,0.00,,,0.00,VWS V14.01,2013-02-08 07:16:00,
2013-02-08 02:21:00,30.0,24.3,30.35,East,79,8.0,11.0,79,0.00,,,0.00,VWS V14.01,2013-02-08 07:21:00,
2013-02-08 02:26:00,30.1,24.4,30.35,East,84,3.0,11.0,79,0.00,,,0.00,VWS V14.01,2013-02-08 07:26:00,
2013-02-08 02:31:00,30.1,24.4,30.34,ENE,74,4.0,11.0,79,0.00,,,0.00,VWS V14.01,2013-02-08 07:31:00,
2013-02-08 02:36:00,30.1,24.4,30.33,ENE,75,4.0,10.0,79,0.00,,,0.00,VWS V14.01,2013-02-08 07:36:00,
2013-02-08 02:41:00,30.1,24.4,30.33,ENE,75,3.0,10.0,79,0.00,,,0.00,VWS V14.01,2013-02-08 07:41:00,
2013-02-08 02:46:00,30.1,24.4,30.33,East,80,3.0,10.0,79,0.00,,,0.00,VWS V14.01,2013-02-08 07:46:00,
2013-02-08 02:51:00,30.1,24.4,30.33,East,88,5.0,11.0,79,0.00,,,0.00,VWS V14.01,2013-02-08 07:51:00,
2013-02-08 02:56:00,30.2,24.5,30.33,East,92,6.0,13.0,79,0.00,,,0.00,VWS V14.01,2013-02-08 07:56:00,
2013-02-08 03:01:00,30.2,24.5,30.33,East,81,3.0,13.0,79,0.00,,,0.00,VWS V14.01,2013-02-08 08:01:00,
2013-02-08 03:06:00,30.2,24.5,30.33,ENE,74,3.0,10.0,79,0.00,,,0.00,VWS V14.01,2013-02-08 08:06:00,
2013-02-08 03:11:00,30.2,24.5,30.32,East,96,5.0,10.0,79,0.00,,,0.00,VWS V14.01,2013-02-08 08:11:00,
2013-02-08 03:16:00,30.3,24.6,30.32,ENE,71,3.0,11.0,79,0.00,,,0.00,VWS V14.01,2013-02-08 08:16:00,
2013-02-08 03:21:00,30.3,24.6,30.32,East,82,2.0,11.0,79,0.00,,,0.00,VWS V14.01,2013-02-08 08:21:00,
2013-02-08 03:26:00,30.3,24.6,30.32,East,84,5.0,11.0,79,0.00,,,0.00,VWS V14.01,2013-02-08 08:26:00,
2013-02-08 03:30:00,30.7,25.0,30.31,East,95,6.0,11.0,79,0.00,,,0.00,VWS V14.01,2013-02-08 08:30:00,
2013-02-08 03:31:00,30.3,24.6,30.32,East,92,7.0,11.0,79,0.00,,,0.00,VWS V14.01,2013-02-08 08:31:00,
2013-02-08 03:36:00,30.4,24.7,30.31,SSE,152,3.0,9.0,79,0.00,,,0.00,VWS V14.01,2013-02-08 08:36:00,
2013-02-08 03:41:00,30.4,24.7,30.32,SE,138,8.0,10.0,79,0.00,,,0.00,VWS V14.01,2013-02-08 08:41:00,
2013-02-08 03:46:00,30.5,24.8,30.31,East,81,6.0,10.0,79,0.00,,,0.00,VWS V14.01,2013-02-08 08:46:00,
2013-02-08 03:51:00,30.5,25.1,30.31,ESE,107,3.0,10.0,80,0.00,,,0.00,VWS V14.01,2013-02-08 08:51:00,
2013-02-08 03:56:00,30.5,25.1,30.31,East,101,2.0,10.0,80,0.00,,,0.00,VWS V14.01,2013-02-08 08:56:00,
2013-02-08 04:00:00,30.7,25.3,30.29,ENE,66,5.0,10.0,80,0.00,,,0.00,VWS V14.01,2013-02-08 09:00:00,
2013-02-08 04:01:00,30.5,25.1,30.31,ESE,106,3.0,10.0,80,0.00,,,0.00,VWS V14.01,2013-02-08 09:01:00,
2013-02-08 04:06:00,30.6,25.2,30.31,East,96,3.0,9.0,80,0.00,,,0.00,VWS V14.01,2013-02-08 09:06:00,
2013-02-08 04:11:00,30.6,25.2,30.31,East,88,6.0,9.0,80,0.00,,,0.00,VWS V14.01,2013-02-08 09:11:00,
2013-02-08 04:16:00,30.6,25.2,30.31,ENE,78,2.0,10.0,80,0.00,,,0.00,VWS V14.01,2013-02-08 09:16:00,
2013-02-08 04:21:00,30.7,25.0,30.31,ESE,105,7.0,11.0,79,0.00,,,0.00,VWS V14.01,2013-02-08 09:21:00,
2013-02-08 04:26:00,30.7,25.0,30.31,ENE,78,1.0,11.0,79,0.00,,,0.00,VWS V14.01,2013-02-08 09:26:00,
2013-02-08 04:30:00,30.9,25.5,30.27,East,91,2.0,10.0,80,0.00,,,0.00,VWS V14.01,2013-02-08 09:30:00,
2013-02-08 04:31:00,30.7,25.0,30.31,ESE,110,5.0,11.0,79,0.00,,,0.00,VWS V14.01,2013-02-08 09:31:00,
2013-02-08 04:36:00,30.7,25.3,30.30,ENE,77,5.0,10.0,80,0.00,,,0.00,VWS V14.01,2013-02-08 09:36:00,
2013-02-08 04:41:00,30.7,25.3,30.30,ENE,68,4.0,10.0,80,0.00,,,0.00,VWS V14.01,2013-02-08 09:41:00,
2013-02-08 04:46:00,30.7,25.3,30.30,ENE,78,3.0,10.0,80,0.00,,,0.00,VWS V14.01,2013-02-08 09:46:00,
2013-02-08 04:51:00,30.7,25.3,30.29,East,90,10.0,10.0,80,0.00,,,0.00,VWS V14.01,2013-02-08 09:51:00,
2013-02-08 04:56:00,30.7,25.3,30.29,East,86,6.0,10.0,80,0.00,,,0.00,VWS V14.01,2013-02-08 09:56:00,
2013-02-08 05:01:00,30.7,25.3,30.29,East,84,3.0,10.0,80,0.00,,,0.00,VWS V14.01,2013-02-08 10:01:00,
2013-02-08 05:06:00,30.8,25.4,30.28,East,101,2.0,8.0,80,0.00,,,0.00,VWS V14.01,2013-02-08 10:06:00,
2013-02-08 05:11:00,30.8,25.4,30.28,East,90,3.0,10.0,80,0.00,,,0.00,VWS V14.01,2013-02-08 10:11:00,
2013-02-08 05:16:00,30.8,25.4,30.28,East,86,8.0,10.0,80,0.00,,,0.00,VWS V14.01,2013-02-08 10:16:00,
2013-02-08 05:21:00,30.8,25.4,30.27,East,81,2.0,10.0,80,0.00,,,0.00,VWS V14.01,2013-02-08 10:21:00,
2013-02-08 05:26:00,30.8,25.4,30.27,East,100,6.0,10.0,80,0.00,,,0.00,VWS V14.01,2013-02-08 10:26:00,
2013-02-08 05:30:00,31.2,25.8,30.24,East,84,3.0,12.0,80,0.00,,,0.00,VWS V14.01,2013-02-08 10:30:00,
2013-02-08 05:31:00,30.8,25.4,30.27,SE,126,6.0,10.0,80,0.00,,,0.00,VWS V14.01,2013-02-08 10:31:00,
2013-02-08 05:36:00,30.9,25.5,30.26,East,90,3.0,9.0,80,0.00,,,0.00,VWS V14.01,2013-02-08 10:36:00,
2013-02-08 05:41:00,30.9,25.5,30.26,East,95,5.0,11.0,80,0.00,,,0.00,VWS V14.01,2013-02-08 10:41:00,
2013-02-08 05:46:00,31.0,25.6,30.26,NE,49,2.0,11.0,80,0.00,,,0.00,VWS V14.01,2013-02-08 10:46:00,
2013-02-08 05:51:00,31.0,25.9,30.25,ENE,58,3.0,11.0,81,0.00,,,0.00,VWS V14.01,2013-02-08 10:51:00,
2013-02-08 05:56:00,31.0,25.6,30.25,ENE,73,9.0,13.0,80,0.00,,,0.00,VWS V14.01,2013-02-08 10:56:00,
2013-02-08 06:00:00,31.4,26.0,30.25,ENE,65,1.0,13.0,80,0.00,,,0.00,VWS V14.01,2013-02-08 11:00:00,
2013-02-08 06:01:00,31.1,25.7,30.25,SE,130,6.0,13.0,80,0.00,,,0.00,VWS V14.01,2013-02-08 11:01:00,
2013-02-08 06:06:00,31.1,25.7,30.25,East,92,5.0,12.0,80,0.00,,,0.00,VWS V14.01,2013-02-08 11:06:00,
2013-02-08 06:11:00,31.1,25.7,30.25,East,88,11.0,12.0,80,0.00,,,0.00,VWS V14.01,2013-02-08 11:11:00,
2013-02-08 06:16:00,31.1,25.7,30.25,ENE,65,4.0,12.0,80,0.00,,,0.00,VWS V14.01,2013-02-08 11:16:00,
2013-02-08 06:21:00,31.1,25.7,30.24,ENE,65,2.0,12.0,80,0.00,,,0.00,VWS V14.01,2013-02-08 11:21:00,
2013-02-08 06:26:00,31.2,25.8,30.25,East,90,2.0,12.0,80,0.00,,,0.00,VWS V14.01,2013-02-08 11:26:00,
2013-02-08 06:31:00,31.2,25.8,30.24,East,84,6.0,12.0,80,0.00,,,0.00,VWS V14.01,2013-02-08 11:31:00,
2013-02-08 06:36:00,31.2,25.8,30.24,East,100,5.0,11.0,80,0.00,,,0.00,VWS V14.01,2013-02-08 11:36:00,
2013-02-08 06:41:00,31.3,25.9,30.24,ESE,117,4.0,13.0,80,0.00,,,0.00,VWS V14.01,2013-02-08 11:41:00,
2013-02-08 06:46:00,31.3,25.9,30.24,East,98,8.0,13.0,80,0.00,,,0.00,VWS V14.01,2013-02-08 11:46:00,
2013-02-08 06:51:00,31.3,25.9,30.25,ESE,102,1.0,13.0,80,0.00,,,0.00,VWS V14.01,2013-02-08 11:51:00,
2013-02-08 06:56:00,31.4,26.0,30.25,East,101,3.0,13.0,80,0.00,,,0.00,VWS V14.01,2013-02-08 11:56:00,
2013-02-08 07:01:00,31.3,25.9,30.25,East,101,6.0,13.0,80,0.00,,,0.00,VWS V14.01,2013-02-08 12:01:00,
2013-02-08 07:06:00,31.4,26.0,30.25,East,88,3.0,10.0,80,0.00,,,0.00,VWS V14.01,2013-02-08 12:06:00,
2013-02-08 07:11:00,31.4,26.0,30.25,East,79,6.0,10.0,80,0.00,,,0.00,VWS V14.01,2013-02-08 12:11:00,
2013-02-08 07:16:00,31.4,26.0,30.24,East,81,6.0,10.0,80,0.00,,,0.00,VWS V14.01,2013-02-08 12:16:00,
2013-02-08 07:21:00,31.4,26.0,30.24,ENE,76,2.0,10.0,80,0.00,,,0.00,VWS V14.01,2013-02-08 12:21:00,
2013-02-08 07:26:00,31.5,26.0,30.23,SE,146,7.0,11.0,80,0.00,,,0.00,VWS V14.01,2013-02-08 12:26:00,
2013-02-08 07:30:00,32.2,27.0,30.21,ESE,123,7.0,14.0,81,0.00,,,0.00,VWS V14.01,2013-02-08 12:30:00,
2013-02-08 07:31:00,31.5,26.4,30.23,NE,43,6.0,15.0,81,0.00,,,0.00,VWS V14.01,2013-02-08 12:31:00,
2013-02-08 07:36:00,31.5,26.4,30.23,ENE,65,2.0,13.0,81,0.00,,,0.00,VWS V14.01,2013-02-08 12:36:00,
2013-02-08 07:41:00,31.5,26.4,30.22,ENE,66,5.0,13.0,81,0.00,,,0.00,VWS V14.01,2013-02-08 12:41:00,
2013-02-08 07:46:00,31.5,26.4,30.22,ENE,68,1.0,13.0,81,0.00,,,0.00,VWS V14.01,2013-02-08 12:46:00,
2013-02-08 07:51:00,31.5,26.4,30.22,East,83,6.0,13.0,81,0.00,,,0.00,VWS V14.01,2013-02-08 12:51:00,
2013-02-08 07:56:00,31.5,26.6,30.23,ESE,111,14.0,14.0,82,0.00,,,0.00,VWS V14.01,2013-02-08 12:56:00,
2013-02-08 08:01:00,31.4,26.5,30.22,ENE,68,5.0,15.0,82,0.00,,,0.00,VWS V14.01,2013-02-08 13:01:00,
2013-02-08 08:06:00,31.4,26.8,30.21,ENE,75,7.0,11.0,83,0.00,,,0.00,VWS V14.01,2013-02-08 13:06:00,
2013-02-08 08:11:00,31.4,26.8,30.21,East,98,8.0,11.0,83,0.00,,,0.00,VWS V14.01,2013-02-08 13:11:00,
2013-02-08 08:16:00,31.6,26.8,30.21,ENE,69,8.0,11.0,82,0.00,,,0.00,VWS V14.01,2013-02-08 13:16:00,
2013-02-08 08:21:00,31.8,26.9,30.21,ESE,103,5.0,11.0,82,0.00,,,0.00,VWS V14.01,2013-02-08 13:21:00,
2013-02-08 08:26:00,32.0,26.8,30.21,East,101,6.0,11.0,81,0.00,,,0.00,VWS V14.01,2013-02-08 13:26:00,
2013-02-08 08:30:00,33.4,28.2,30.17,East,96,7.0,12.0,81,0.00,,,0.00,VWS V14.01,2013-02-08 13:30:00,
2013-02-08 08:31:00,32.1,26.9,30.21,ENE,70,4.0,13.0,81,0.00,,,0.00,VWS V14.01,2013-02-08 13:31:00,
2013-02-08 08:36:00,32.4,26.9,30.20,East,95,10.0,14.0,80,0.00,,,0.00,VWS V14.01,2013-02-08 13:36:00,
2013-02-08 08:41:00,32.5,27.0,30.20,East,98,11.0,16.0,80,0.00,,,0.00,VWS V14.01,2013-02-08 13:41:00,
2013-02-08 08:46:00,32.5,27.0,30.20,East,94,6.0,16.0,80,0.00,,,0.00,VWS V14.01,2013-02-08 13:46:00,
2013-02-08 08:51:00,32.6,27.1,30.20,ENE,78,4.0,16.0,80,0.00,,,0.00,VWS V14.01,2013-02-08 13:51:00,
2013-02-08 08:56:00,32.8,27.3,30.19,ENE,70,3.0,16.0,80,0.00,,,0.00,VWS V14.01,2013-02-08 13:56:00,
2013-02-08 09:00:00,33.2,29.2,30.16,SE,133,3.0,14.0,85,0.00,,,0.00,VWS V14.01,2013-02-08 14:00:00,
2013-02-08 09:01:00,32.9,27.1,30.19,ESE,107,9.0,16.0,79,0.00,,,0.00,VWS V14.01,2013-02-08 14:01:00,
2013-02-08 09:06:00,33.0,27.2,30.19,East,90,6.0,8.0,79,0.00,,,0.00,VWS V14.01,2013-02-08 14:06:00,
2013-02-08 09:11:00,33.0,27.2,30.19,ESE,104,4.0,10.0,79,0.00,,,0.00,VWS V14.01,2013-02-08 14:11:00,
2013-02-08 09:16:00,33.1,27.3,30.19,ENE,71,3.0,10.0,79,0.00,,,0.00,VWS V14.01,2013-02-08 14:16:00,
2013-02-08 09:21:00,33.2,27.7,30.18,ENE,78,4.0,10.0,80,0.00,,,0.00,VWS V14.01,2013-02-08 14:21:00,
2013-02-08 09:26:00,33.3,27.8,30.18,ENE,68,5.0,12.0,80,0.00,,,0.00,VWS V14.01,2013-02-08 14:26:00,
2013-02-08 09:30:00,32.9,30.0,30.14,NE,53,4.0,13.0,89,0.00,,,0.00,VWS V14.01,2013-02-08 14:30:00,
2013-02-08 09:31:00,33.3,28.1,30.17,East,98,6.0,12.0,81,0.00,,,0.00,VWS V14.01,2013-02-08 14:31:00,
2013-02-08 09:36:00,33.4,28.2,30.17,East,81,6.0,11.0,81,0.00,,,0.00,VWS V14.01,2013-02-08 14:36:00,
2013-02-08 09:41:00,33.4,28.5,30.17,ENE,64,3.0,11.0,82,0.00,,,0.00,VWS V14.01,2013-02-08 14:41:00,
2013-02-08 09:46:00,33.4,28.5,30.17,ENE,76,3.0,11.0,82,0.00,,,0.00,VWS V14.01,2013-02-08 14:46:00,
2013-02-08 09:51:00,33.4,28.8,30.17,East,98,5.0,11.0,83,0.00,,,0.00,VWS V14.01,2013-02-08 14:51:00,
2013-02-08 10:00:00,32.9,30.8,30.10,East,79,3.0,14.0,92,0.00,,,0.00,VWS V14.01,2013-02-08 15:00:00,
2013-02-08 10:30:00,33.0,31.5,30.07,ESE,121,2.0,11.0,94,0.01,,,0.01,VWS V14.01,2013-02-08 15:30:00,
2013-02-08 11:18:00,33.0,31.2,30.08,ENE,78,7.0,11.0,93,0.00,,,0.00,VWS V14.01,2013-02-08 16:18:00,
2013-02-08 11:23:00,33.0,31.2,30.08,ENE,74,3.0,11.0,93,0.00,,,0.00,VWS V14.01,2013-02-08 16:23:00,
2013-02-08 11:28:00,33.0,31.5,30.07,SE,130,1.0,11.0,94,0.01,,,0.01,VWS V14.01,2013-02-08 16:28:00,
2013-02-08 11:30:00,32.9,31.6,30.01,East,88,6.0,15.0,95,0.02,,,0.02,VWS V14.01,2013-02-08 16:30:00,
2013-02-08 11:33:00,33.0,31.5,30.07,ENE,61,4.0,10.0,94,0.01,,,0.01,VWS V14.01,2013-02-08 16:33:00,
2013-02-08 11:38:00,33.0,31.5,30.06,East,80,2.0,10.0,94,0.01,,,0.01,VWS V14.01,2013-02-08 16:38:00,
2013-02-08 11:43:00,33.0,31.5,30.06,East,81,1.0,10.0,94,0.01,,,0.01,VWS V14.01,2013-02-08 16:43:00,
2013-02-08 11:49:00,33.0,31.5,30.05,ENE,76,3.0,10.0,94,0.01,,,0.01,VWS V14.01,2013-02-08 16:49:00,
2013-02-08 11:53:00,32.9,31.4,30.04,East,95,3.0,10.0,94,0.01,,,0.01,VWS V14.01,2013-02-08 16:53:00,
2013-02-08 11:58:00,32.9,31.4,30.04,East,96,5.0,11.0,94,0.01,,,0.01,VWS V14.01,2013-02-08 16:58:00,
2013-02-08 12:03:00,32.9,31.4,30.03,ENE,75,7.0,11.0,94,0.01,,,0.01,VWS V14.01,2013-02-08 17:03:00,
2013-02-08 12:09:00,32.9,31.4,30.03,East,86,5.0,11.0,94,0.01,,,0.01,VWS V14.01,2013-02-08 17:09:00,
2013-02-08 12:14:00,32.9,31.4,30.03,ENE,78,1.0,11.0,94,0.01,,,0.01,VWS V14.01,2013-02-08 17:14:00,
2013-02-08 12:19:00,32.9,31.6,30.02,SE,137,6.0,11.0,95,0.01,,,0.01,VWS V14.01,2013-02-08 17:19:00,
2013-02-08 12:24:00,32.9,31.4,30.02,East,88,2.0,11.0,94,0.01,,,0.01,VWS V14.01,2013-02-08 17:24:00,
2013-02-08 12:29:00,32.9,31.4,30.01,East,86,6.0,15.0,94,0.02,,,0.02,VWS V14.01,2013-02-08 17:29:00,
2013-02-08 12:30:00,33.0,31.7,29.95,East,86,8.0,16.0,95,0.03,,,0.04,VWS V14.01,2013-02-08 17:30:00,
2013-02-08 12:34:00,32.9,31.6,30.01,ESE,107,3.0,9.0,95,0.01,,,0.02,VWS V14.01,2013-02-08 17:34:00,
2013-02-08 12:39:00,33.0,31.7,30.00,ENE,69,9.0,16.0,95,0.01,,,0.02,VWS V14.01,2013-02-08 17:39:00,
2013-02-08 12:44:00,33.0,31.7,30.00,East,81,3.0,16.0,95,0.01,,,0.02,VWS V14.01,2013-02-08 17:44:00,
2013-02-08 12:49:00,33.0,31.7,30.00,NNE,30,11.0,16.0,95,0.01,,,0.02,VWS V14.01,2013-02-08 17:49:00,
2013-02-08 12:54:00,33.0,31.7,29.99,East,98,6.0,16.0,95,0.01,,,0.02,VWS V14.01,2013-02-08 17:54:00,
2013-02-08 12:59:00,33.0,31.7,29.99,East,96,6.0,16.0,95,0.02,,,0.03,VWS V14.01,2013-02-08 17:59:00,
2013-02-08 13:00:00,33.1,31.8,29.93,ENE,61,2.0,16.0,95,0.04,,,0.06,VWS V14.01,2013-02-08 18:00:00,
2013-02-08 13:04:00,33.0,31.7,29.98,NE,55,3.0,9.0,95,0.02,,,0.03,VWS V14.01,2013-02-08 18:04:00,
2013-02-08 13:09:00,33.0,31.7,29.97,ESE,102,4.0,11.0,95,0.02,,,0.03,VWS V14.01,2013-02-08 18:09:00,
2013-02-08 13:14:00,33.0,31.7,29.97,ENE,69,4.0,14.0,95,0.03,,,0.04,VWS V14.01,2013-02-08 18:14:00,
2013-02-08 13:19:00,33.0,31.7,29.96,NNE,13,9.0,14.0,95,0.03,,,0.04,VWS V14.01,2013-02-08 18:19:00,
2013-02-08 13:24:00,33.0,31.7,29.96,ENE,65,5.0,14.0,95,0.03,,,0.04,VWS V14.01,2013-02-08 18:24:00,
2013-02-08 13:29:00,33.0,31.7,29.96,ENE,78,7.0,16.0,95,0.03,,,0.04,VWS V14.01,2013-02-08 18:29:00,
2013-02-08 13:34:00,33.0,31.7,29.95,ENE,57,4.0,12.0,95,0.02,,,0.04,VWS V14.01,2013-02-08 18:34:00,
2013-02-08 13:39:00,33.1,31.8,29.95,East,82,8.0,14.0,95,0.03,,,0.05,VWS V14.01,2013-02-08 18:39:00,
2013-02-08 13:44:00,33.1,31.8,29.94,ENE,78,3.0,16.0,95,0.03,,,0.05,VWS V14.01,2013-02-08 18:44:00,
2013-02-08 13:49:00,33.1,31.8,29.94,East,96,10.0,16.0,95,0.03,,,0.05,VWS V14.01,2013-02-08 18:49:00,
2013-02-08 13:54:00,33.1,31.8,29.93,ENE,73,11.0,16.0,95,0.04,,,0.06,VWS V14.01,2013-02-08 18:54:00,
2013-02-08 13:59:00,33.1,31.8,29.93,East,92,6.0,16.0,95,0.04,,,0.06,VWS V14.01,2013-02-08 18:59:00,
2013-02-08 14:00:00,33.2,32.2,29.87,NE,49,11.0,16.0,96,0.04,,,0.08,VWS V14.01,2013-02-08 19:00:00,
2013-02-08 14:04:00,33.0,31.7,29.92,ENE,58,3.0,17.0,95,0.03,,,0.06,VWS V14.01,2013-02-08 19:04:00,
2013-02-08 14:09:00,33.1,32.1,29.92,East,88,6.0,17.0,96,0.03,,,0.06,VWS V14.01,2013-02-08 19:09:00,
2013-02-08 14:14:00,33.1,32.1,29.91,ENE,59,4.0,17.0,96,0.03,,,0.06,VWS V14.01,2013-02-08 19:14:00,
2013-02-08 14:19:00,33.1,32.1,29.91,ENE,67,4.0,24.0,96,0.04,,,0.07,VWS V14.01,2013-02-08 19:19:00,
2013-02-08 14:24:00,33.1,32.1,29.91,East,84,6.0,24.0,96,0.04,,,0.07,VWS V14.01,2013-02-08 19:24:00,
2013-02-08 14:29:00,33.2,32.2,29.90,East,80,11.0,24.0,96,0.04,,,0.07,VWS V14.01,2013-02-08 19:29:00,
2013-02-08 14:30:00,33.2,32.2,29.82,North,355,12.0,21.0,96,0.04,,,0.10,VWS V14.01,2013-02-08 19:30:00,
2013-02-08 14:35:00,33.2,32.2,29.90,East,80,9.0,13.0,96,0.03,,,0.07,VWS V14.01,2013-02-08 19:35:00,
2013-02-08 14:40:00,33.2,32.2,29.89,ENE,75,11.0,15.0,96,0.04,,,0.08,VWS V14.01,2013-02-08 19:40:00,
2013-02-08 14:45:00,33.1,32.1,29.89,ENE,76,7.0,16.0,96,0.04,,,0.08,VWS V14.01,2013-02-08 19:45:00,
2013-02-08 14:50:00,33.1,32.1,29.89,ENE,74,7.0,16.0,96,0.04,,,0.08,VWS V14.01,2013-02-08 19:50:00,
2013-02-08 14:55:00,33.2,32.2,29.88,East,98,8.0,16.0,96,0.04,,,0.08,VWS V14.01,2013-02-08 19:55:00,
2013-02-08 15:00:00,33.2,32.2,29.88,ESE,121,7.0,16.0,96,0.04,,,0.08,VWS V14.01,2013-02-08 20:00:00,
2013-02-08 15:05:00,33.1,32.1,29.87,SE,127,5.0,15.0,96,0.03,,,0.09,VWS V14.01,2013-02-08 20:05:00,
2013-02-08 15:10:00,33.2,32.2,29.86,ENE,57,3.0,16.0,96,0.03,,,0.09,VWS V14.01,2013-02-08 20:10:00,
2013-02-08 15:15:00,33.1,32.1,29.85,NE,45,2.0,16.0,96,0.03,,,0.09,VWS V14.01,2013-02-08 20:15:00,
2013-02-08 15:20:00,33.1,32.1,29.84,NE,56,10.0,16.0,96,0.03,,,0.09,VWS V14.01,2013-02-08 20:20:00,
2013-02-08 15:25:00,33.1,32.1,29.83,East,101,6.0,16.0,96,0.04,,,0.10,VWS V14.01,2013-02-08 20:25:00,
2013-02-08 15:30:00,33.2,32.2,29.82,ENE,74,14.0,17.0,96,0.04,,,0.10,VWS V14.01,2013-02-08 20:30:00,
2013-02-08 15:35:00,33.2,32.2,29.81,NW,306,8.0,17.0,96,0.03,,,0.10,VWS V14.01,2013-02-08 20:35:00,
2013-02-08 15:40:00,33.1,32.1,29.81,North,11,2.0,18.0,96,0.03,,,0.10,VWS V14.01,2013-02-08 20:40:00,
2013-02-08 15:45:00,33.2,32.2,29.81,ENE,68,11.0,24.0,96,0.03,,,0.10,VWS V14.01,2013-02-08 20:45:00,
2013-02-08 15:50:00,33.2,32.2,29.80,East,88,15.0,24.0,96,0.04,,,0.11,VWS V14.01,2013-02-08 20:50:00,
2013-02-08 15:55:00,33.1,32.1,29.80,NNE,33,11.0,24.0,96,0.04,,,0.11,VWS V14.01,2013-02-08 20:55:00,
2013-02-08 16:00:00,33.0,32.0,29.79,NNE,18,5.0,24.0,96,0.04,,,0.11,VWS V14.01,2013-02-08 21:00:00,
2013-02-08 16:05:00,33.0,32.0,29.78,NE,55,5.0,14.0,96,0.03,,,0.11,VWS V14.01,2013-02-08 21:05:00,
2013-02-08 16:09:00,33.0,32.0,29.78,North,360,10.0,18.0,96,0.04,,,0.12,VWS V14.01,2013-02-08 21:09:00,
2013-02-08 16:14:00,33.0,32.0,29.77,NE,49,10.0,18.0,96,0.04,,,0.12,VWS V14.01,2013-02-08 21:14:00,
2013-02-08 16:19:00,32.9,31.9,29.77,East,82,6.0,18.0,96,0.04,,,0.12,VWS V14.01,2013-02-08 21:19:00,
2013-02-08 16:25:00,32.8,31.8,29.77,ENE,75,7.0,18.0,96,0.04,,,0.12,VWS V14.01,2013-02-08 21:25:00,
2013-02-08 16:29:00,32.8,31.8,29.76,NNE,19,5.0,18.0,96,0.04,,,0.12,VWS V14.01,2013-02-08 21:29:00,
2013-02-08 16:30:00,32.4,31.4,29.71,NNE,17,3.0,15.0,96,0.01,,,0.12,VWS V14.01,2013-02-08 21:30:00,
2013-02-08 16:34:00,32.7,31.7,29.76,NE,54,7.0,14.0,96,0.02,,,0.12,VWS V14.01,2013-02-08 21:34:00,
2013-02-08 16:39:00,32.7,31.7,29.75,East,84,2.0,14.0,96,0.02,,,0.12,VWS V14.01,2013-02-08 21:39:00,
2013-02-08 16:44:00,32.6,31.6,29.74,NE,52,5.0,14.0,96,0.02,,,0.12,VWS V14.01,2013-02-08 21:44:00,
2013-02-08 16:49:00,32.6,31.6,29.74,ENE,69,5.0,15.0,96,0.02,,,0.12,VWS V14.01,2013-02-08 21:49:00,
2013-02-08 16:54:00,32.6,31.6,29.74,NE,49,3.0,15.0,96,0.02,,,0.12,VWS V14.01,2013-02-08 21:54:00,
2013-02-08 16:59:00,32.6,31.6,29.74,ENE,59,3.0,15.0,96,0.02,,,0.12,VWS V14.01,2013-02-08 21:59:00,
2013-02-08 17:00:00,32.3,31.5,29.66,North,360,3.0,14.0,97,0.00,,,0.12,VWS V14.01,2013-02-08 22:00:00,
2013-02-08 17:05:00,32.6,31.6,29.73,NE,38,9.0,10.0,96,0.01,,,0.12,VWS V14.01,2013-02-08 22:05:00,
2013-02-08 17:10:00,32.5,31.5,29.73,East,79,3.0,15.0,96,0.01,,,0.12,VWS V14.01,2013-02-08 22:10:00,
2013-02-08 17:15:00,32.5,31.5,29.72,East,80,8.0,15.0,96,0.01,,,0.12,VWS V14.01,2013-02-08 22:15:00,
2013-02-08 17:20:00,32.5,31.5,29.71,NE,35,9.0,15.0,96,0.01,,,0.12,VWS V14.01,2013-02-08 22:20:00,
2013-02-08 17:25:00,32.5,31.5,29.71,ENE,66,7.0,15.0,96,0.01,,,0.12,VWS V14.01,2013-02-08 22:25:00,
2013-02-08 17:30:00,32.4,31.6,29.70,NE,40,5.0,15.0,97,0.01,,,0.12,VWS V14.01,2013-02-08 22:30:00,
2013-02-08 17:35:00,32.4,31.6,29.70,ENE,65,5.0,11.0,97,0.00,,,0.12,VWS V14.01,2013-02-08 22:35:00,
2013-02-08 17:40:00,32.4,31.4,29.69,NNE,30,0.0,11.0,96,0.00,,,0.12,VWS V14.01,2013-02-08 22:40:00,
2013-02-08 17:45:00,32.4,31.4,29.69,NNE,15,9.0,11.0,96,0.00,,,0.12,VWS V14.01,2013-02-08 22:45:00,
2013-02-08 17:50:00,32.4,31.4,29.68,North,5,9.0,12.0,96,0.00,,,0.12,VWS V14.01,2013-02-08 22:50:00,
2013-02-08 17:55:00,32.3,31.3,29.67,NNE,32,11.0,14.0,96,0.00,,,0.12,VWS V14.01,2013-02-08 22:55:00,
2013-02-08 18:00:00,32.3,31.5,29.67,ENE,71,2.0,14.0,97,0.00,,,0.12,VWS V14.01,2013-02-08 23:00:00,
2013-02-08 18:05:00,32.3,31.5,29.66,NNE,17,5.0,10.0,97,0.00,,,0.12,VWS V14.01,2013-02-08 23:05:00,
2013-02-08 18:10:00,32.3,31.5,29.66,NE,34,4.0,14.0,97,0.00,,,0.12,VWS V14.01,2013-02-08 23:10:00,
2013-02-08 18:15:00,32.3,31.5,29.66,ENE,63,2.0,14.0,97,0.00,,,0.12,VWS V14.01,2013-02-08 23:15:00,
2013-02-08 18:20:00,32.3,31.5,29.64,NNE,23,8.0,14.0,97,0.00,,,0.12,VWS V14.01,2013-02-08 23:20:00,
2013-02-08 18:25:00,32.3,31.5,29.64,NE,38,7.0,14.0,97,0.00,,,0.12,VWS V14.01,2013-02-08 23:25:00,
2013-02-08 18:30:00,32.2,31.5,29.63,South,171,2.0,14.0,97,0.00,,,0.12,VWS V14.01,2013-02-08 23:30:00,
2013-02-08 18:35:00,32.2,31.5,29.62,NNE,17,8.0,11.0,97,0.00,,,0.12,VWS V14.01,2013-02-08 23:35:00,
2013-02-08 18:40:00,32.3,31.5,29.60,NNE,13,3.0,14.0,97,0.00,,,0.12,VWS V14.01,2013-02-08 23:40:00,
2013-02-08 18:45:00,32.3,31.5,29.59,NNE,24,6.0,14.0,97,0.00,,,0.12,VWS V14.01,2013-02-08 23:45:00,
2013-02-08 18:50:00,32.3,31.5,29.60,NE,41,11.0,14.0,97,0.00,,,0.12,VWS V14.01,2013-02-08 23:50:00,
2013-02-08 18:55:00,32.2,31.5,29.59,North,360,1.0,14.0,97,0.00,,,0.12,VWS V14.01,2013-02-08 23:55:00,
2013-02-08 19:00:00,32.2,31.5,29.58,East,98,7.0,14.0,97,0.00,,,0.12,VWS V14.01,2013-02-09 00:00:00,
2013-02-08 19:05:00,32.2,31.5,29.57,NE,38,6.0,15.0,97,0.00,,,0.12,VWS V14.01,2013-02-09 00:05:00,
2013-02-08 19:10:00,32.1,31.4,29.56,NNE,15,9.0,15.0,97,0.00,,,0.12,VWS V14.01,2013-02-09 00:10:00,
2013-02-08 19:15:00,32.1,31.4,29.55,NE,36,6.0,16.0,97,0.00,,,0.12,VWS V14.01,2013-02-09 00:15:00,
2013-02-08 19:20:00,32.1,31.4,29.56,NE,37,10.0,16.0,97,0.00,,,0.12,VWS V14.01,2013-02-09 00:20:00,
2013-02-08 19:25:00,32.1,31.4,29.55,NNW,329,2.0,16.0,97,0.01,,,0.13,VWS V14.01,2013-02-09 00:25:00,
2013-02-08 19:30:00,32.1,31.4,29.55,NE,36,4.0,16.0,97,0.01,,,0.13,VWS V14.01,2013-02-09 00:30:00,
2013-02-08 19:35:00,32.1,31.4,29.54,NNE,15,9.0,11.0,97,0.01,,,0.13,VWS V14.01,2013-02-09 00:35:00,
2013-02-08 19:40:00,32.1,31.4,29.53,North,5,5.0,13.0,97,0.01,,,0.13,VWS V14.01,2013-02-09 00:40:00,
2013-02-08 19:45:00,32.1,31.4,29.53,NE,36,3.0,13.0,97,0.01,,,0.13,VWS V14.01,2013-02-09 00:45:00,
2013-02-08 19:50:00,32.1,31.4,29.51,NE,54,2.0,13.0,97,0.01,,,0.13,VWS V14.01,2013-02-09 00:50:00,
2013-02-08 19:55:00,32.1,31.4,29.51,NE,47,9.0,13.0,97,0.01,,,0.13,VWS V14.01,2013-02-09 00:55:00,
2013-02-08 20:00:00,32.1,31.4,29.49,NNE,28,5.0,13.0,97,0.01,,,0.13,VWS V14.01,2013-02-09 01:00:00,
2013-02-08 20:05:00,32.1,31.4,29.48,NE,44,7.0,16.0,97,0.01,,,0.13,VWS V14.01,2013-02-09 01:05:00,
2013-02-08 20:10:00,32.1,31.4,29.47,North,360,4.0,16.0,97,0.01,,,0.13,VWS V14.01,2013-02-09 01:10:00,
2013-02-08 20:15:00,32.1,31.4,29.45,ENE,57,9.0,16.0,97,0.01,,,0.13,VWS V14.01,2013-02-09 01:15:00,
2013-02-08 20:20:00,32.0,31.2,29.44,NNE,14,9.0,16.0,97,0.01,,,0.13,VWS V14.01,2013-02-09 01:20:00,
2013-02-08 20:25:00,32.1,31.4,29.45,NNE,22,7.0,16.0,97,0.01,,,0.13,VWS V14.01,2013-02-09 01:25:00,
2013-02-08 21:00:00,32.0,31.2,29.39,NNE,22,2.0,13.0,97,0.00,,,0.00,VWS V14.01,2013-02-09 02:00:00,
2013-02-08 22:00:00,31.7,31.2,29.32,NNE,22,0.0,0.0,98,0.01,,,0.01,VWS V14.01,2013-02-09 03:00:00,
2013-02-08 22:30:00,31.5,31.0,29.30,NNE,22,0.0,0.0,98,0.01,,,0.01,VWS V14.01,2013-02-09 03:30:00,
2013-02-08 23:30:00,30.6,30.1,29.27,NNE,22,0.0,0.0,98,0.00,,,0.00,VWS V14.01,2013-02-09 04:30:00,